Simultaneous Nadir Overpasses (SNOs) Predictions

Prediction of SNOs between METOP-A and TERRA Satellite Orbit:

Table of predicted SNOs for the next 14.0 days since TLE Epoch: 12/17/2016
Index Date (METOP-A) Time (METOP-A) Lat,Lon (METOP-A) SZA (METOP-A ) Date (TERRA) Time (TERRA) Lat,Lon (TERRA) SZA (TERRA ) Distance(km) Time Diff (sec)
1 12/18/2016 23:08:38 81.30,-120.38 107.36 12/18/2016 23:09:49 81.30,-120.35 107.40 0.47 71
2 12/18/2016 23:59:18 -81.31, 47.43 72.59 12/18/2016 23:59:15 -81.31, 47.61 72.56 3.21 3
3 12/21/2016 18:43:01 81.30, -53.78 107.37 12/21/2016 18:44:03 81.31, -53.68 107.42 1.82 62
4 12/21/2016 19:33:41 -81.31, 114.05 72.58 12/21/2016 19:33:30 -81.31, 113.91 72.60 2.22 11
5 12/24/2016 14:17:24 81.30, 12.41 107.27 12/24/2016 14:18:17 81.30, 12.55 107.31 2.41 53
6 12
